RH
54 58 53 56 56 51 69 54 79 65 66 59 52 51 51 49 51 57 62 74 81 80 65 65 69 84 97 99 100 100 100 100 100 99 100 100 100 100 99 98 93 88 83 81
62 48 49 65 58 55 54 50 53 55 64 49 47 47 51 51 53 57 58 59 61 66 72 68 67 72 86 95 98 96 97 98 98 98 99 99 96 93 90 86 82 80 79 75
66 51 50 57 71 62 58 55 52 68 57 44 54 59 59 54 52 57 57 59 58 61 60 66 66 67 72 82 87 90 93 94 93 92 93 93 90 87 85 82 80 76 72 69
50 44 60 59 54 58 62 60 50 50 49 50 53 57 57 55 56 59 60 63 61 60 64 63 65 69 71 74 78 82 86 89 89 88 89 89 87 86 85 82 79 77 76 75
52 54 57 57 56 67 81 69 49 48 45 44 49 45 63 57 55 59 62 64 65 64 64 65 68 68 69 72 75 74 76 78 79 82 82 82 84 84 82 80 80 79 78 80
52 59 59 49 51 49 49 83 53 49 50 47 39 53 71 60 58 58 64 69 69 69 68 68 69 67 65 66 68 73 72 75 79 81 82 82 83 87 88 81 78 80 80 79
49 55 54 45 48 48 63 80 55 52 52 51 62 62 62 59 62 60 63 70 71 76 79 78 75 70 71 74 81 81 81 81 80 80 80 82 83 80 80 83 82 87 86 86
48 50 64 50 53 55 60 60 54 54 55 59 59 59 62 60 62 64 64 65 72 75 81 86 84 75 82 84 83 83 82 83 85 85 84 88 87 88 89 88 92 93 91 90
49 55 60 59 60 59 50 55 60 58 59 56 60 61 62 61 61 64 65 66 66 70 78 85 89 88 92 93 85 82 78 79 82 83 84 84 86 86 85 85 83 84 86 89
53 57 59 59 62 60 57 61 63 63 59 59 58 59 62 61 61 63 68 68 66 66 68 74 84 88 92 94 90 83 83 84 85 81 79 78 81 80 78 78 77 76 87 93
50 55 57 57 55 59 62 61 62 62 64 60 57 59 58 65 63 64 65 67 67 66 68 72 75 80 84 86 86 93 96 95 92 94 94 90 91 91 87 80 82 82 86 90
37 38 40 42 51 58 60 62 62 63 64 64 65 61 63 65 64 61 60 65 67 70 71 73 74 79 84 86 85 82 79 86 92 96 98 98 96 96 98 97 96 96 96 96
40 39 41 44 53 54 55 60 60 59 65 65 64 66 68 68 69 70 65 68 72 79 82 82 84 89 90 88 88 92 92 93 90 86 86 85 89 99 100 97 98 99 99 100
44 56 65 61 61 59 58 62 71 65 66 67 67 69 70 71 74 69 71 77 81 84 85 86 89 94 92 94 90 97 99 98 100 99 98 98 98 98 99 99 97 95 96 99
54 52 46 52 55 62 64 66 66 64 62 65 68 69 72 71 72 74 80 84 86 85 88 91 91 90 85 90 94 94 95 97 100 99 100 100 100 99 100 100 100 98 96 97
54 58 59 62 62 65 65 66 65 60 63 63 66 71 75 77 80 83 86 88 87 86 92 91 85 81 70 83 77 82 83 79 87 97 98 99 100 100 99 99 100 100 100 99
70 75 67 65 64 61 62 57 57 60 70 72 73 82 90 89 91 92 92 94 94 94 90 83 76 75 76 75 75 79 78 76 83 77 80 84 86 97 99 99 100 100 100 100
52 53 54 50 55 54 56 58 61 66 70 80 90 95 96 97 95 90 87 84 70 66 76 78 77 71 74 72 72 77 74 76 76 76 77 76 82 88 85 91 93 98 99 99
54 52 52 50 50 53 56 60 68 75 85 91 94 92 89 87 87 85 86 84 78 68 62 71 79 65 60 65 58 81 86 80 72 72 76 80 84 80 83 84 82 82 86 91
56 56 58 62 59 60 64 66 72 76 82 89 89 88 84 80 83 83 76 75 69 60 60 65 72 68 63 74 69 68 83 78 70 66 68 72 72 72 75 79 82 83 82 83
68 68 67 67 68 67 68 70 75 74 82 89 88 84 79 74 72 70 72 73 66 75 75 77 77 73 86 73 58 70 86 81 69 64 66 69 69 72 73 77 82 86 87 87
80 81 80 76 73 71 72 72 74 76 77 78 77 81 81 75 68 69 70 70 75 85 66 56 61 61 70 77 59 82 90 82 71 68 72 75 79 81 84 88 92 94 94 94
93 89 86 86 85 83 80 80 80 79 81 81 82 82 78 72 68 78 81 80 79 70 61 55 57 57 61 74 73 86 90 84 80 76 76 80 89 93 93 95 98 96 95 96
87 82 82 83 84 85 87 83 79 81 83 83 84 84 86 87 87 85 85 87 91 94 96 93 87 63 76 80 82 86 89 88 84 75 73 87 86 87 92 94 93 91 94 92
85 86 85 85 85 80 81 85 88 86 84 87 88 87 85 88 96 90 93 94 95 98 98 93 79 73 83 85 85 88 90 89 82 73 74 81 86 89 88 86 87 89 89 87
83 79 77 81 77 75 77 82 88 82 82 84 85 88 87 89 89 90 92 95 90 87 89 86 81 73 80 90 86 86 87 82 77 76 85 93 90 88 86 85 87 86 82 82
84 82 81 84 83 82 85 88 92 88 83 87 86 82 86 87 88 87 87 86 83 80 79 77 77 74 74 73 72 71 72 73 76 76 78 81 88 90 87 84 81 81 83 82
Wind_Speed
7 7 12 12 16 18 13 14 9 14 17 13 13 14 15 14 14 15 17 16 15 14 11 14 15 14 14 12 11 11 12 15 16 17 19 22 25 26 25 23 23 25 26 23
6 8 12 15 17 15 14 15 15 16 15 10 12 12 14 14 14 15 15 14 13 12 12 13 15 14 11 12 10 10 11 12 16 16 17 19 22 22 21 22 22 22 21 20
3 2 5 5 12 9 13 13 10 10 9 10 12 14 14 14 14 14 13 13 12 12 11 10 10 10 10 11 10 11 11 11 11 12 16 18 18 19 18 19 20 20 19 19
2 4 2 3 5 8 12 12 11 10 10 9 10 13 14 13 13 13 12 12 11 11 9 8 10 10 8 9 10 10 9 10 10 11 11 13 16 16 18 18 17 18 19 18
2 5 4 3 2 3 5 8 10 10 9 8 3 6 16 14 13 12 12 12 12 11 10 11 11 9 9 8 7 8 8 8 8 9 12 11 13 14 14 16 17 17 18 18
1 2 1 4 4 4 5 2 7 8 9 9 8 7 7 11 13 13 15 15 15 14 13 13 11 8 7 7 7 6 5 7 8 9 9 10 12 12 13 14 15 15 15 14
3 2 4 4 2 3 3 4 4 5 7 10 9 6 5 7 9 12 14 15 14 14 14 13 10 9 10 9 10 6 4 3 5 7 8 10 12 11 13 12 13 13 13 12
1 0 4 1 3 4 5 5 5 5 6 7 7 6 6 7 8 10 13 14 14 15 15 14 14 11 12 13 8 5 5 5 4 4 5 6 8 9 11 11 12 11 10 9
4 3 3 3 5 4 2 5 4 4 4 4 3 4 5 5 7 8 10 12 11 12 14 15 16 14 14 14 12 9 6 6 3 2 2 3 5 6 7 9 10 11 13 12
3 4 5 5 4 4 3 5 4 4 3 1 3 3 3 4 5 7 10 10 9 11 13 13 12 14 14 12 10 9 8 8 5 2 1 2 4 6 9 11 12 13 13 14
2 4 4 5 4 5 5 4 3 3 3 3 1 1 1 2 3 4 4 5 7 8 10 10 10 12 11 10 10 9 7 5 5 7 5 3 5 7 7 7 9 9 11 12
2 9 5 10 10 8 6 4 3 1 1 2 3 1 0 2 1 2 4 4 5 5 6 7 8 9 10 11 10 7 4 4 3 1 5 5 7 10 10 13 14 15 14 12
2 9 3 10 10 8 6 4 3 1 1 2 2 2 0 1 1 1 3 4 4 4 4 4 4 4 5 6 6 6 5 5 4 1 1 2 3 6 10 10 12 15 15 16
9 12 7 10 6 8 6 5 3 2 1 0 2 1 1 1 3 2 1 2 1 2 2 3 3 4 4 5 4 3 2 2 2 4 4 3 4 6 7 7 7 7 10 15
12 1 2 9 9 8 7 6 5 4 3 3 1 2 2 3 3 2 1 0 1 1 1 3 4 4 5 5 3 3 3 3 4 5 7 6 6 7 8 10 11 11 10 10
12 5 7 10 10 8 7 5 5 5 4 5 5 3 0 1 0 1 1 1 3 4 5 7 6 6 5 4 5 4 4 6 5 6 6 7 7 6 7 8 10 11 12 13
13 8 9 9 9 9 8 6 5 4 4 4 3 2 2 1 1 3 4 5 5 6 7 7 6 6 4 5 4 4 5 5 5 5 4 5 5 6 7 8 8 8 10 10
6 8 8 7 10 9 7 6 5 5 5 4 3 2 4 4 6 5 6 5 6 8 8 8 6 5 5 5 5 4 5 6 6 6 6 5 4 6 7 7 8 7 7 6
9 8 11 7 10 8 7 6 5 5 5 5 5 6 5 5 6 6 6 6 8 8 9 7 8 8 6 7 8 7 7 7 7 7 7 7 6 6 6 6 6 7 6 7
8 10 10 9 8 7 6 5 5 6 6 4 5 6 6 8 8 7 7 10 10 10 9 8 9 9 9 9 9 8 8 8 8 8 7 7 7 7 7 8 8 7 7 6
10 11 11 10 9 7 5 5 6 7 5 5 6 7 8 8 7 8 8 10 12 10 10 10 11 11 10 10 9 8 9 8 8 8 8 8 9 9 9 8 8 9 8 8
11 10 10 9 8 7 6 6 6 6 7 9 10 10 10 10 9 11 15 16 12 10 11 13 13 13 12 10 10 9 10 9 9 8 9 9 9 9 10 10 9 8 9 10
11 11 10 9 9 7 7 8 10 10 11 11 13 13 13 12 10 10 9 11 12 12 11 11 12 12 12 13 12 12 12 11 11 10 10 10 11 11 12 11 11 10 10 10
11 10 9 8 7 7 7 11 13 13 15 15 15 15 14 12 15 18 19 17 17 16 17 17 15 14 13 14 13 13 13 13 13 14 14 11 13 13 13 13 13 12 12 12
11 12 12 10 8 8 9 10 9 12 15 16 17 18 18 18 19 15 13 14 13 14 15 16 15 15 15 15 14 14 14 15 15 15 14 14 13 12 14 14 14 14 13 13
12 11 10 11 9 7 7 6 8 8 9 10 12 14 16 16 17 17 17 16 17 18 18 17 16 15 16 15 15 15 15 15 14 14 13 14 15 14 15 15 14 14 13 13
10 8 7 6 9 11 11 11 10 11 11 12 13 13 14 14 15 14 15 16 17 16 16 14 13 13 15 15 15 15 15 15 14 14 14 14 15 15 15 14 14 13 12 12
Wind_Direction
63 64 50 45 53 60 58 70 71 80 65 57 55 52 53 52 46 55 50 35 28 29 28 48 75 77 82 89 101 133 148 152 151 162 164 171 167 161 159 158 161 162 164 169
76 62 63 55 31 54 50 80 95 86 74 76 62 60 48 49 45 41 41 49 46 40 27 27 49 62 75 91 112 122 123 128 149 154 153 157 160 159 160 161 161 165 165 166
123 307 291 39 11 29 57 46 44 69 53 61 62 59 48 42 46 42 38 31 35 35 42 42 45 60 73 89 99 116 127 131 139 143 149 155 156 159 159 165 166 166 165 170
354 277 79 54 43 24 66 44 43 60 49 63 82 73 60 47 46 40 35 31 23 24 36 46 64 72 81 88 101 112 121 131 141 144 142 146 149 155 159 162 162 164 163 167
286 48 113 132 95 30 8 42 26 34 39 50 98 117 46 41 46 45 32 24 29 25 30 48 50 59 74 76 87 103 119 121 128 140 140 141 155 161 161 167 165 172 174 172
52 120 126 61 81 358 340 78 28 30 31 17 356 65 48 28 31 40 42 31 28 36 51 56 42 46 67 71 72 72 101 128 139 148 152 157 166 163 166 174 171 173 175 178
66 72 100 99 25 358 255 102 79 52 38 41 67 61 66 43 46 45 44 43 47 51 52 53 55 73 76 62 50 48 65 99 131 146 155 170 176 182 176 179 174 179 182 187
196 162 133 92 175 295 88 96 89 61 49 71 83 86 75 66 55 44 46 45 43 52 52 43 40 62 63 55 44 54 63 81 96 112 149 167 174 174 177 178 181 181 182 194
351 44 85 82 79 97 47 109 82 75 59 71 86 91 71 58 49 53 49 45 47 63 60 45 47 55 51 30 37 34 52 70 79 89 112 147 167 183 189 193 197 193 194 198
212 139 138 129 120 103 86 90 81 66 63 51 98 99 66 49 45 45 41 39 38 51 60 63 56 55 51 40 34 34 30 30 26 40 189 202 210 205 207 209 217 209 202 210
146 160 156 184 175 148 129 118 102 68 49 51 86 68 94 120 110 98 79 65 56 61 61 54 47 48 45 41 47 61 57 44 356 332 295 266 255 251 253 252 245 243 236 230
232 168 195 171 168 164 157 144 103 87 81 44 342 331 31 112 100 131 115 89 75 69 73 67 59 53 39 30 26 26 49 51 40 339 296 286 274 280 266 267 264 258 247 250
169 160 130 140 150 165 166 166 141 109 47 328 0 343 299 131 101 70 66 49 36 36 43 65 64 32 15 15 16 17 15 356 336 342 356 342 307 291 281 272 261 257 255 251
143 128 127 166 178 173 169 171 159 156 177 330 316 318 252 208 168 164 126 96 78 47 24 1 352 338 348 353 3 347 331 301 307 305 291 272 276 284 281 279 280 273 260 250
175 120 188 160 146 160 166 171 189 210 213 226 260 292 287 255 242 217 145 270 258 223 248 268 271 281 305 310 319 315 314 312 316 303 302 302 292 290 292 292 287 282 283 275
168 155 148 163 165 169 176 186 218 224 234 237 225 213 189 302 352 209 208 260 265 275 273 273 280 291 307 309 319 325 320 314 313 301 306 308 308 305 300 293 289 287 285 285
158 178 180 179 183 185 197 208 218 222 215 229 216 168 217 251 247 260 268 274 282 280 274 271 278 287 295 296 304 308 311 314 316 314 312 309 307 305 307 305 305 303 299 297
189 183 185 186 187 190 196 202 207 208 218 207 201 216 239 236 252 264 263 266 277 279 272 270 271 274 279 281 286 290 298 303 304 302 302 304 304 298 299 297 298 308 315 320
177 169 176 181 183 185 186 192 201 203 199 202 214 237 251 265 269 267 263 267 271 280 288 259 257 260 266 273 281 286 288 295 298 297 297 302 303 298 300 300 302 304 302 305
158 149 154 151 161 171 170 183 198 214 219 213 233 250 259 267 262 265 266 262 261 259 265 273 265 257 261 270 278 273 273 278 284 288 290 293 292 295 299 300 299 300 301 301
153 154 156 162 167 168 177 186 208 225 218 228 240 255 262 267 259 255 257 265 278 273 262 265 257 260 263 263 268 261 261 269 279 287 292 294 296 297 297 293 291 295 296 294
155 161 163 164 168 171 183 201 212 224 236 246 253 257 259 261 258 255 255 254 265 266 270 269 265 265 254 253 258 251 254 257 265 271 277 282 285 286 286 286 284 286 287 285
151 162 169 172 178 196 211 220 228 235 242 248 247 250 243 248 249 247 259 271 266 265 268 264 270 270 260 253 254 252 251 256 263 265 267 270 273 275 279 279 279 282 284 281
161 173 179 183 191 209 227 242 246 249 253 258 260 262 258 249 258 263 267 265 267 270 272 268 271 269 252 251 249 249 252 256 260 266 272 270 271 276 276 277 279 282 278 278
173 177 186 186 202 228 238 248 253 251 253 256 257 261 261 259 247 260 263 275 277 272 271 270 265 262 250 248 247 248 252 258 265 270 271 272 274 275 280 281 280 279 279 281
179 190 197 207 219 230 235 230 243 255 252 254 255 253 261 261 264 268 273 272 272 274 272 268 265 258 247 243 246 252 255 261 265 268 267 269 275 278 281 282 280 279 279 276
192 192 200 222 236 243 244 239 239 252 253 251 260 266 266 268 267 267 270 273 276 273 270 269 262 257 251 253 258 258 259 263 266 270 276 280 282 284 284 281 280 278 277 280